Starlink 1621

operational
NORAD ID: 46127 Int'l Des: 2020-057 Owner: SPXS Country: US Constellation: starlink
LEOCIRCULAR

About Starlink 1621

Description loading...

Live Position

Loading 3D Globe...

Upcoming Passes

Altitude History

Altitude vs Time

uPlot chart will show altitude changes over time

Two-Line Element Set

1 46127U 20057L 25303.99387625 .00126018 00000-0 30165-2 0 9991
2 46127 53.0507 150.9486 0008012 166.3910 193.7311 15.40505529286908
Epoch: Oct 30, 2025 • Age: 17 hours

Current Status

Altitude 464.1 km
Velocity 7.63 km/s
Sub-Earth Point -52.55°S, 140.52°E
Launch Date Aug 18, 2020
Age 5.2 years
Type internet

Technical Details

Classification Payload
Mass 260.00 kg
Dry Mass 248.00 kg
Total Mass 260.00 kg
Length 0.20 m
Diameter 2.80 m
Span 9.00 m
Shape Box + pan
Manufacturer SPXS
Bus Type Starlink
Phase Status In Orbit
Owner/State SPXS/US

Large Constellations

Loading constellations...